Weather History for Wendover, UT

Change the Weather History Date:

Wednesday, November 21, 2012

  Actual Average Record
Temperature  
Mean Temperature 42 °F -  
Max Temperature 53 °F 42 °F 62 °F (1950)
Min Temperature 30 °F 25 °F 12 °F (1977)
Degree Days  
Heating Degree Days 24    
Moisture  
Dew Point 28 °F    
Average Humidity 59    
Maximum Humidity 87    
Minimum Humidity 38    
Precipitation  
Precipitation 0.00 in - - ()
Sea Level Pressure  
Sea Level Pressure 30.01 in    
Wind  
Wind Speed 5 mph (NE)    
Max Wind Speed 21 mph    
Max Gust Speed 24 mph    
Visibility 10 miles    
Events      
Averages and records for this station are not official NWS values.
T = Trace of Precipitation, MM = Missing Value Source: NWS Daily Summary

Daily Weather History Graph

Daily Weather History Graph

Search for Another Location

Airport:

Trip Planner

Search our weather history database for the weather conditions in past years. The results will help you decide how hot, cold, wet, or windy it might be!

Date:

Astronomy

Nov. 21, 2012 Rise Set
Actual Time 7:30 AM MST 5:13 PM MST
Civil Twilight 7:00 AM MST 5:43 PM MST
Nautical Twilight 6:27 AM MST 6:16 PM MST
Astronomical Twilight 5:54 AM MST 6:49 PM MST
Moon 1:33 PM MST (11/21) 12:51 AM MST (11/21)
Length of Visible Light 10h 42m
Length of Day
9h 42m
Waxing Gibbous, 62% of the Moon is Illuminated
Nov 21
Waxing Gibbous
Nov 28
Full
Dec 6
Last Quarter
Dec 13
New
Dec 19
First Quarter

Hourly Weather History & Observations

Time (MST) Temp. Windchill Dew Point Humidity Pressure Visibility Wind Dir Wind Speed Gust Speed Precip Events Conditions
12:15 AM 33.8 °F 29.6 °F 26.6 °F 75% 30.03 in 10.0 mi ENE 4.6 mph - N/A   Clear
12:35 AM 33.8 °F 29.6 °F 26.6 °F 75% 30.02 in 10.0 mi NE 4.6 mph - N/A   Clear
12:55 AM 33.8 °F 27.7 °F 26.6 °F 75% 30.02 in 10.0 mi NE 6.9 mph - N/A   Clear
1:15 AM 35.6 °F 30.7 °F 28.4 °F 75% 30.01 in 10.0 mi NE 5.8 mph - N/A   Clear
1:35 AM 35.6 °F - 28.4 °F 75% 30.01 in 10.0 mi Calm Calm - N/A   Clear
1:55 AM 35.6 °F - 26.6 °F 70% 30.01 in 10.0 mi Calm Calm - N/A   Clear
2:15 AM 35.6 °F 31.7 °F 26.6 °F 70% 30.01 in 10.0 mi ESE 4.6 mph - N/A   Clear
2:35 AM 35.6 °F 32.8 °F 26.6 °F 70% 30.01 in 10.0 mi East 3.5 mph - N/A   Clear
2:55 AM 35.6 °F 30.7 °F 26.6 °F 70% 30.01 in 10.0 mi East 5.8 mph - N/A   Clear
3:15 AM 33.8 °F 30.8 °F 26.6 °F 75% 30.00 in 10.0 mi WNW 3.5 mph - N/A   Clear
3:35 AM 33.8 °F 28.6 °F 26.6 °F 75% 30.00 in 10.0 mi SW 5.8 mph - N/A   Clear
3:55 AM 33.8 °F 28.6 °F 24.8 °F 70% 30.00 in 10.0 mi NW 5.8 mph - N/A   Clear
4:15 AM 35.6 °F - 28.4 °F 75% 29.99 in 10.0 mi Calm Calm - N/A   Clear
4:35 AM 33.8 °F 30.8 °F 24.8 °F 70% 29.98 in 10.0 mi North 3.5 mph - N/A   Clear
4:55 AM 33.8 °F 30.8 °F 24.8 °F 70% 29.98 in 10.0 mi ENE 3.5 mph - N/A   Clear
5:15 AM 30.2 °F 25.4 °F 21.2 °F 69% 29.98 in 10.0 mi NNE 4.6 mph - N/A   Clear
5:35 AM 33.8 °F - 28.4 °F 81% 29.98 in 10.0 mi Calm Calm - N/A   Clear
6:15 AM 30.2 °F - 23.0 °F 75% 29.98 in 10.0 mi Calm Calm - N/A   Clear
6:35 AM 32.0 °F - 24.8 °F 75% 29.99 in 10.0 mi Calm Calm - N/A   Clear
6:55 AM 30.2 °F 26.7 °F 21.2 °F 69% 29.99 in 10.0 mi West 3.5 mph - N/A   Clear
7:15 AM 32.0 °F 27.5 °F 28.4 °F 87% 29.99 in 10.0 mi WNW 4.6 mph - N/A   Clear
7:35 AM 30.2 °F - 21.2 °F 69% 29.99 in 10.0 mi Calm Calm - N/A   Clear
7:55 AM 30.2 °F - 21.2 °F 69% 30.00 in 10.0 mi Calm Calm - N/A   Clear
8:15 AM 32.0 °F - 24.8 °F 75% 30.00 in 10.0 mi Calm Calm - N/A   Clear
8:35 AM 33.8 °F 30.8 °F 24.8 °F 70% 30.00 in 10.0 mi East 3.5 mph - N/A   Clear
8:55 AM 35.6 °F - 26.6 °F 70% 30.01 in 10.0 mi Calm Calm - N/A   Clear
9:15 AM 39.2 °F - 28.4 °F 65% 30.01 in 10.0 mi Calm Calm - N/A   Clear
9:35 AM 41.0 °F 39.0 °F 30.2 °F 65% 30.01 in 10.0 mi West 3.5 mph - N/A   Clear
9:55 AM 42.8 °F - 30.2 °F 61% 30.01 in 10.0 mi Calm Calm - N/A   Clear
10:15 AM 42.8 °F - 30.2 °F 61% 30.01 in 10.0 mi Calm Calm - N/A   Clear
10:35 AM 44.6 °F 41.4 °F 28.4 °F 53% 30.01 in 10.0 mi ENE 5.8 mph - N/A   Clear
10:55 AM 46.4 °F 42.4 °F 28.4 °F 50% 30.02 in 10.0 mi ENE 8.1 mph - N/A   Clear
11:15 AM 46.4 °F 41.9 °F 26.6 °F 46% 30.01 in 10.0 mi ENE 9.2 mph - N/A   Clear
11:35 AM 46.4 °F 41.9 °F 26.6 °F 46% 30.00 in 10.0 mi NE 9.2 mph - N/A   Clear
11:55 AM 46.4 °F 42.4 °F 28.4 °F 50% 29.99 in 10.0 mi NE 8.1 mph - N/A   Clear
12:15 PM 48.2 °F - 26.6 °F 43% 29.98 in 10.0 mi NE 8.1 mph - N/A   Clear
12:35 PM 50.0 °F - 28.4 °F 43% 29.97 in 10.0 mi ENE 9.2 mph - N/A   Clear
12:55 PM 51.8 °F - 28.4 °F 41% 29.96 in 10.0 mi ENE 11.5 mph - N/A   Clear
1:15 PM 51.8 °F - 28.4 °F 41% 29.96 in 10.0 mi NE 8.1 mph - N/A   Clear
1:35 PM 51.8 °F - 28.4 °F 41% 29.96 in 10.0 mi ENE 5.8 mph - N/A   Scattered Clouds
1:55 PM 51.8 °F - 28.4 °F 41% 29.96 in 10.0 mi ENE 4.6 mph - N/A   Scattered Clouds
2:15 PM 51.8 °F - 28.4 °F 41% 29.95 in 10.0 mi NE 4.6 mph - N/A   Partly Cloudy
2:35 PM 53.6 °F - 28.4 °F 38% 29.94 in 10.0 mi NE 4.6 mph - N/A   Clear
2:55 PM 51.8 °F - 32.0 °F 47% 29.94 in 10.0 mi Calm Calm - N/A   Partly Cloudy
3:15 PM 51.8 °F - 32.0 °F 47% 29.94 in 10.0 mi South 5.8 mph - N/A   Clear
3:35 PM 51.8 °F - 30.2 °F 44% 29.95 in 10.0 mi South 4.6 mph - N/A   Clear
3:55 PM 53.6 °F - 32.0 °F 44% 29.95 in 10.0 mi Calm Calm - N/A   Partly Cloudy
4:15 PM 53.6 °F - 30.2 °F 41% 29.95 in 10.0 mi Calm Calm - N/A   Partly Cloudy
4:35 PM 51.8 °F - 30.2 °F 44% 29.95 in 10.0 mi Calm Calm - N/A   Scattered Clouds
4:55 PM 51.8 °F - 32.0 °F 47% 29.95 in 10.0 mi Calm Calm - N/A   Mostly Cloudy
5:15 PM 51.8 °F - 32.0 °F 47% 29.96 in 10.0 mi Calm Calm - N/A   Partly Cloudy
5:35 PM 46.4 °F - 32.0 °F 57% 29.97 in 10.0 mi Calm Calm - N/A   Scattered Clouds
5:55 PM 46.4 °F 42.4 °F 30.2 °F 53% 29.98 in 10.0 mi West 8.1 mph - N/A   Partly Cloudy
6:15 PM 46.4 °F 44.3 °F 32.0 °F 57% 29.99 in 10.0 mi SSW 4.6 mph - N/A   Partly Cloudy
6:35 PM 46.4 °F 43.5 °F 30.2 °F 53% 29.99 in 10.0 mi West 5.8 mph - N/A   Mostly Cloudy
7:15 PM 48.2 °F - 30.2 °F 50% 30.01 in 10.0 mi North 10.4 mph - N/A   Mostly Cloudy
7:35 PM 53.6 °F - 35.6 °F 51% 30.01 in 10.0 mi NNW 10.4 mph - N/A   Scattered Clouds
8:15 PM 51.8 °F - 32.0 °F 47% 30.04 in 10.0 mi NW 11.5 mph - N/A   Clear
8:35 PM 48.2 °F - 32.0 °F 54% 30.05 in 10.0 mi WNW 19.6 mph 24.2 mph N/A   Clear
8:55 PM 46.4 °F 41.1 °F 32.0 °F 57% 30.06 in 10.0 mi SSW 11.5 mph 19.6 mph N/A   Clear
9:15 PM 46.4 °F 43.5 °F 30.2 °F 53% 30.08 in 10.0 mi ESE 5.8 mph - N/A   Clear
9:35 PM 44.6 °F 39.2 °F 30.2 °F 57% 30.09 in 10.0 mi East 10.4 mph - N/A   Clear
9:55 PM 44.6 °F 38.4 °F 28.4 °F 53% 30.11 in 10.0 mi NNE 12.7 mph 20.7 mph N/A   Partly Cloudy
10:15 PM 42.8 °F 34.0 °F 28.4 °F 57% 30.11 in 10.0 mi WNW 20.7 mph - N/A   Partly Cloudy
10:35 PM 41.0 °F 32.8 °F 28.4 °F 61% 30.12 in 10.0 mi WNW 16.1 mph 23.0 mph N/A   Clear
10:55 PM 41.0 °F 35.2 °F 26.6 °F 57% 30.13 in 10.0 mi SSE 9.2 mph - N/A   Clear
11:15 PM 42.8 °F 38.6 °F 28.4 °F 57% 30.15 in 10.0 mi South 6.9 mph 16.1 mph N/A   Clear
11:35 PM 39.2 °F 31.2 °F 26.6 °F 61% 30.16 in 10.0 mi SE 13.8 mph - N/A   Clear
11:55 PM 39.2 °F 32.5 °F 26.6 °F 61% 30.17 in 10.0 mi SE 10.4 mph - N/A   Clear